STARLINK-32131 (60153 NORAD) Tracking and Keplerian Element Data

This shows tracking and keplerian element data for the satellite.

Feedback or suggestion? Click here.




ElementValue
Catalog60153
NameSTARLINK-32131
Epoch Orbit1785
Epoch Day286.72658344
Epoch Year2024
RAAN187.2465
Inclination53.161
Eccentricity0.0001182
Argument of Perigee145.2707
Mean Anonmoly214.8375
Mean Motion15.39666523
Decay Rate-1.37E-06
L11 60153U 24120U 24286.72658344 -.00000137 00000+0 65458-5 0 9999
L22 60153 53.1610 187.2465 0001182 145.2707 214.8375 15.39666523 17851



Live tracking and technical data element details for STARLINK-32131 (NORAD 60153). STARLINK-32131 can be tracked NOW for your location showing map with azimuth and elevation plus other details from your city location.







IsCatalogInMostPopularTable: catalog: 60153, numindb: 13
Update: records affected: 1



GetName: 60153 STARLINK-32131

Hit Count: updated at: Thu, 23 Jan 2025 14:33:37 GMT